JILIN-01 GAOFEN 3I (46461 NORAD) Tracking and Keplerian Element Data

This shows tracking and keplerian element data for the satellite.

Feedback or suggestion? Click here.




ElementValue
Catalog46461
NameJILIN-01 GAOFEN 3I
Epoch Orbit1088
Epoch Day331.16912846
Epoch Year2020
RAAN25.6082
Inclination97.5342
Eccentricity0.0015479
Argument of Perigee51.0806
Mean Anonmoly33.0493
Mean Motion15.09689983
Decay Rate5.37E-06
L11 46461U 20065H 20331.16912846 .00000537 00000-0 37178-4 0 9995
L22 46461 97.5342 25.6082 0015479 51.0806 33.0493 15.09689983 10889

Live tracking and technical data element details for JILIN-01 GAOFEN 3I (NORAD 46461). JILIN-01 GAOFEN 3I can be tracked NOW for your location showing map with azimuth and elevation plus other details from your city location.

Track the satellite on the map from your city or location and see movement details for azimuth, elevation, latitude, longitude, range, height, and movement on the map or in text.







IsCatalogInMostPopularTable: catalog: 46461, numindb: 23
Update: records affected: 1



GetName: 46461 JILIN-01 GAOFEN 3I

Hit Count: updated at: Thu, 26 Nov 2020 23:33:53 GMT